Regional Weather Roundup
Issued by NWS Jackson, KY

Home | Current Version | Previous Version | Graphics & Text | Print | Product List | Glossary On
Versions: 1 2 3 4 5 6 7 8 9 10 11 12 13 14 15 16 17 18 19 20 21 22 23 24 25 26 27 28 29 30 31 32 33 34 35 36 37 38 39 40 41 42 43 44 45 46 47 48 49 50
000
ASUS43 KJKL 310919
RWRJKL

EAST KENTUCKY HOURLY WEATHER ROUNDUP
NATIONAL WEATHER SERVICE JACKSON KY
500 AM EDT SUN AUG 31 2014

NOTE: "FAIR" INDICATES FEW OR NO CLOUDS BELOW 12,000 FEET WITH
NO SIGNIFICANT WEATHER AND/OR OBSTRUCTIONS TO VISIBILITY.

* THESE REPORTS ARE NOT UNDER NWS QUALITY CONTROL AND MAY NOT
  REPORT WEATHER SUCH AS PRECIPITATION AND FOG.

KYZ079-080-083-085-087-088-110-112-115-119-120-311000
...EASTERN KENTUCKY...

CITY           SKY/WX    TMP DP  RH WIND       PRES   REMARKS
JACKSON        MOCLDY    69  67  93 CALM      30.10R
LONDON         CLOUDY    71  68  90 S5        30.12R
SOMERSET*      CLOUDY    70  70 100 CALM      30.10S
MONTICELLO*    CLOUDY    71  69  93 CALM      30.11S
WILLIAMSBURG*  CLEAR     68  68 100 SE7       30.12R
MIDDLESBORO*   CLOUDY    71  68  90 CALM      30.14S
HARLAN APT*    CLOUDY    70  68  94 MISG      30.15S
HAZARD APT*    SUNNY     70  70 100 CALM      30.11R
BLACK MTN*       N/A     61  61 100 SW3         N/A
PIKEVILLE APT* PTCLDY    68  68 100 S3        30.11S
BIG SANDY*     CLOUDY    71  70  97 S8        30.10R
MOREHEAD APT*  CLOUDY    72  70  94 S6        30.10R
ASHLAND*       CLOUDY    72  66  83 SW3       30.05R
$$

KYZ035-036-041-042-044-050-067-078-099-311000
...CENTRAL KENTUCKY...

CITY           SKY/WX    TMP DP  RH WIND       PRES   REMARKS
MT STERLING*   CLOUDY    70  70 100 SW6       30.09R
FLEMING/MASON* LGT RAIN  70  70 100 S9        30.08R
DANVILLE*      CLOUDY    70  68  94 SW7       30.09S
RICHMOND*      CLOUDY    70  66  88 S6        30.08R
LEXINGTON      LGT RAIN  72  69  90 S12       30.06F
FRANKFORT      CLOUDY    71  70  96 S10       30.04S
$$

KYZ091>093-OHZ055-061-077-WVZ005-015-034-035-042-311000
...SOUTHERN OHIO/WEST VIRGINIA...

CITY           SKY/WX    TMP DP  RH WIND       PRES   REMARKS
COVINGTON      LGT RAIN  72  70  94 S6        30.02S FOG
COLUMBUS       CLOUDY    73  68  83 S5        30.01F HAZE
DAYTON         CLOUDY    72  68  87 S5        30.02F
WILMINGTON     CLOUDY    69  68  96 S3        30.02S FOG
HUNTINGTON     CLOUDY    70  68  93 SW5       30.06R
CHARLESTON     LGT RAIN  70  69  97 S8        30.09F
PINEVILLE*     RAIN      71  71 100 MISG      30.22S
BECKLEY        CLOUDY    72  63  73 SW5       30.20R
BLUEFIELD      LGT RAIN  71  62  73 SW14      30.25R
$$

VAZ002-007-008-TNZ017-027-036-066-071-311000
...SOUTHWEST VIRGINIA/EAST TENNESSEE...

CITY           SKY/WX    TMP DP  RH WIND       PRES   REMARKS
WISE*          CLOUDY    66  64  94 S8        30.21S
JONESVILLE*      N/A     68  68 100 CALM      30.18S
ABINGDON*      LGT RAIN  69  69  98 CALM      30.21F
BRISTOL        LGT RAIN  69  66  90 CALM      30.18S
KNOXVILLE      MOCLDY    69  68  96 N3        30.13R
OAK RIDGE      MOCLDY    71  69  93 CALM      30.15S
CROSSVILLE     PTCLDY    71  66  84 S6        30.16S
NASHVILLE      LGT RAIN  72  70  94 S6        30.07S FOG
$$

...KEY TO REMARKS...
VSB - VISIBILITY IN MILES
WCI - WIND CHILL INDEX
HX  - HEAT INDEX

$$



USA.gov is the U.S. government's official web portal to all federal, state and local government web resources and services.